Orbital Elements at Epoch 2459200.5 (2020-Dec-17.0) TDB
Reference: JPL 20 (heliocentric ecliptic J2000)
Element | Value | Uncertainty (1-sigma) | Units |
e | .08865547138869101 | 3.6261e-08 | |
a | 2.344945225893402 | 1.1537e-08 | au |
q | 2.137053001511162 | 8.9608e-08 | au |
i | 4.592064698525845 | 4.1771e-06 | deg |
node | 145.2427398438726 | 6.2229e-05 | deg |
peri | 331.4949392414874 | 7.003e-05 | deg |
M | 37.20613261128641 | 3.1237e-05 | deg |
tp | 2459064.946882561383 (2020-Aug-03.44688256) | 0.00011372 | TDB |
period | 1311.588140259951 3.59 | 9.6792e-06 2.65e-08 | d yr |
n | .2744764068457112 | 2.0256e-09 | deg/d |
Q | 2.552837450275642 | 1.2559e-08 | au |
|
| | Orbit Determination Parameters
Additional Information
|